CAPE
298 569 812 1036 1043 942 841 752 757 740 720 589 549 538 510 514 512 494 458 622 485 352 317 269 214 181 199 232 271 379 587 657 711 776 840 868 1096 964 1126 1330 1021 1160 1424
397 657 822 979 1026 973 898 900 902 830 674 583 531 512 494 429 414 435 368 230 149 50 17 10 1 1 9 42 146 267 254 244 360 529 751 656 665 836 919 1297 1111 1214 1423
447 643 738 888 1045 1028 957 961 981 641 677 634 601 507 371 396 440 285 96 74 22 0 0 0 0 0 0 0 0 11 31 213 241 328 449 237 263 797 672 1389 1259 1719 1406
471 626 760 938 1043 1112 1097 1035 817 684 702 660 538 375 421 408 207 78 36 84 4 0 0 0 0 0 0 0 0 0 0 18 80 265 251 411 588 921 751 1015 1248 1293 1499
474 667 843 935 1011 1089 1022 990 963 968 865 645 459 412 454 225 59 19 9 54 1 0 0 0 0 0 0 0 0 0 0 0 0 88 198 506 393 567 1262 884 671 990 1156
543 755 829 842 922 1055 1045 1046 1102 1009 826 685 596 471 338 113 17 4 0 4 0 0 0 0 0 0 0 0 0 0 0 0 0 73 156 161 187 618 1133 622 696 892 935
572 686 721 784 894 1030 1028 960 999 859 772 719 722 595 274 114 30 5 0 0 0 0 0 0 0 0 13 37 3 0 0 0 0 0 11 168 83 197 765 733 604 1063 954
688 868 742 771 832 891 917 897 777 711 711 759 761 649 362 265 144 10 0 0 0 0 0 0 0 9 60 53 31 0 0 0 0 0 15 127 174 642 793 856 1173 1199 930
692 773 743 768 744 701 637 552 487 530 588 654 679 590 531 298 136 69 21 11 2 20 86 98 112 117 75 30 8 0 0 0 0 0 0 2 524 754 253 758 1186 1258 1279
708 766 763 685 606 421 306 292 321 390 411 446 540 422 254 125 66 56 0 8 101 126 152 146 195 165 104 49 15 0 0 0 0 0 0 0 194 538 276 175 325 805 995
518 398 338 262 105 10 8 141 314 343 339 342 345 214 56 0 0 0 6 76 156 129 154 180 86 57 0 0 0 0 0 0 0 0 0 0 1 274 299 255 641 649 546
50 11 3 0 0 0 0 23 7 62 117 151 123 121 81 108 75 13 13 8 2 0 0 0 0 0 0 0 0 0 0 0 0 0 0 0 0 27 0 32 324 306 314
0 0 0 0 0 0 0 0 0 20 116 144 186 193 162 155 156 101 0 0 0 0 0 0 0 0 0 0 0 0 0 0 0 0 0 0 0 0 0 0 70 102 25
0 0 0 0 0 0 0 0 44 101 158 254 265 279 170 87 4 0 0 0 0 0 0 0 0 0 0 0 0 0 0 0 0 0 0 0 0 0 0 0 0 59 77
19 65 25 0 0 0 0 9 92 172 250 418 369 122 62 2 0 0 0 0 0 0 0 0 0 0 0 0 0 0 0 0 0 0 0 0 0 0 0 0 0 0 0
79 133 194 115 4 0 11 57 80 200 379 539 351 77 11 2 0 0 0 0 0 0 0 0 0 0 0 0 0 0 0 0 0 0 0 0 0 0 0 0 0 0 0
131 161 275 261 49 5 6 63 107 245 344 531 232 21 0 0 0 0 0 0 0 0 0 0 0 0 0 0 0 0 0 0 0 0 0 0 0 0 0 0 0 0 0
211 257 273 288 58 14 51 29 105 111 169 201 103 1 0 4 7 5 8 9 12 5 3 4 0 0 0 0 0 0 0 0 0 0 0 0 0 0 0 0 0 0 0
240 287 284 247 53 24 22 63 39 49 21 54 34 21 35 34 12 24 22 3 3 0 1 0 0 0 0 0 0 0 0 0 0 0 0 0 0 0 0 0 0 0 0
183 271 263 171 61 54 86 68 39 51 42 21 40 39 40 12 0 1 4 0 0 0 0 0 0 0 0 0 0 0 0 0 0 0 0 0 0 0 0 0 0 0 0
209 302 186 183 99 95 72 66 75 57 40 33 14 1 1 0 0 0 0 0 0 0 0 0 0 0 0 0 0 0 0 0 0 0 0 0 0 0 0 0 0 0 0
289 233 53 35 23 28 27 36 23 22 7 6 1 0 0 0 0 0 0 0 0 0 0 0 0 0 0 0 0 0 0 0 0 0 0 0 0 0 0 0 0 0 0
6 0 0 9 10 0 0 0 0 0 0 0 0 0 0 0 0 0 0 1 1 0 0 0 0 0 0 0 0 0 0 0 0 0 0 0 0 0 0 0 0 0 0
0 0 0 0 0 0 0 0 0 0 0 0 0 0 1 3 0 2 3 2 0 0 0 0 0 0 0 0 0 0 0 0 0 0 0 0 0 0 0 0 0 0 0
0 0 0 0 0 0 0 0 0 0 0 0 0 2 7 4 0 2 0 0 0 0 0 0 0 0 0 0 0 0 0 0 0 0 0 0 0 0 5 0 0 0 0
0 0 0 0 0 0 0 0 0 0 0 0 0 3 1 0 0 0 0 0 0 0 0 0 0 0 0 0 0 0 0 0 0 0 0 0 0 0 0 11 0 0 0
CIN
-18 -0 -1 -3 -9 -3 -14 -21 -10 -8 -8 -32 -50 -48 -40 -30 -27 -28 -32 -9 -17 -26 -29 -41 -57 -70 -69 -63 -61 -64 -40 -43 -45 -45 -45 -32 -31 -42 -40 -39 -64 -52 -21
-13 -0 -0 -1 -1 -7 -12 -3 -1 -4 -17 -37 -57 -56 -65 -73 -56 -39 -42 -81 -114 -156 -189 -218 -20 -23 -263 -179 -120 -79 -84 -101 -84 -58 -51 -61 -64 -50 -58 -48 -57 -39 -13
-10 -0 -0 -0 -0 -0 -2 -4 -1 -34 -20 -33 -38 -63 -108 -69 -48 -87 -173 -166 -183 -0 -0 -0 -0 -0 -0 -0 -0 -295 -237 -111 -114 -85 -84 -100 -68 -49 -54 -28 -37 -17 -28
-6 -0 -0 -0 -0 -0 -3 -5 -15 -27 -21 -31 -63 -108 -74 -72 -143 -209 -225 -173 -42 -0 -0 -0 -0 -0 -0 -0 -0 -0 -0 -237 -206 -125 -78 -53 -42 -28 -27 -20 -20 -24 -17
-6 -0 -0 -0 -0 -5 -11 -2 -0 -0 -9 -46 -85 -89 -72 -140 -217 -256 -279 -159 -52 -0 -0 -0 -0 -0 -0 -0 -0 -0 -0 -0 -0 -154 -75 -29 -50 -56 -6 -28 -51 -26 -17
-4 -0 -0 -3 -16 -9 -7 -0 -0 -2 -13 -32 -47 -86 -127 -204 -278 -314 -0 -137 -0 -0 -0 -0 -0 -0 -0 -0 -0 -0 -0 -0 -0 -96 -63 -47 -52 -44 -3 -33 -35 -18 -20
-0 -0 -10 -16 -30 -9 -0 -0 -5 -9 -19 -23 -34 -73 -145 -193 -267 -342 -0 -0 -0 -0 -0 -0 -0 -0 -186 -123 -53 -0 -0 -0 -0 -0 -42 -38 -52 -75 -14 -19 -37 -12 -17
-9 -0 -21 -32 -30 -15 -11 -7 -20 -41 -35 -32 -43 -56 -116 -142 -192 -283 -0 -0 -0 -0 -0 -0 -0 -83 -92 -99 -123 -0 -0 -0 -0 -0 -80 -50 -22 -27 -8 -3 -4 -10 -15
-21 -32 -37 -32 -43 -51 -62 -75 -101 -86 -73 -58 -54 -70 -76 -127 -176 -184 -143 -173 -139 -165 -103 -89 -74 -78 -98 -159 -42 -0 -0 -0 -0 -0 -0 -21 -54 -15 -20 -2 -1 -5 -8
-32 -30 -35 -66 -98 -147 -173 -181 -185 -152 -147 -146 -115 -138 -169 -197 -200 -179 -0 -97 -112 -87 -71 -81 -63 -67 -83 -137 -131 -0 -0 -0 -0 -0 -0 -0 -51 -15 -19 -25 -23 -12 -10
-74 -134 -174 -205 -257 -237 -226 -263 -190 -171 -182 -179 -178 -210 -254 -0 -0 -0 -34 -151 -92 -92 -77 -72 -72 -72 -0 -0 -0 -0 -0 -0 -0 -0 -0 -0 -1 -19 -12 -15 -10 -14 -22
-293 -196 -170 -0 -0 -0 -0 -354 -283 -313 -209 -140 -196 -244 -153 -107 -112 -92 -93 -84 -15 -0 -0 -0 -0 -0 -0 -0 -0 -0 -0 -0 -0 -0 -0 -0 -0 -28 -0 -13 -11 -15 -21
-0 -0 -0 -0 -0 -0 -0 -0 -0 -327 -157 -138 -122 -110 -111 -108 -91 -97 -0 -0 -0 -0 -0 -0 -0 -0 -0 -0 -0 -0 -0 -0 -0 -0 -0 -0 -0 -0 -0 -0 -8 -17 -19
-0 -6 -0 -0 -0 -0 -0 -17 -150 -131 -118 -113 -108 -94 -127 -141 -43 -0 -0 -0 -0 -0 -0 -0 -0 -0 -0 -0 -0 -0 -0 -0 -0 -0 -0 -0 -0 -0 -0 -0 -0 -0 -2
-21 -28 -45 -0 -0 -0 -2 -61 -95 -76 -58 -43 -59 -125 -144 -57 -0 -0 -0 -0 -0 -0 -0 -0 -0 -0 -0 -0 -0 -0 -0 -0 -0 -0 -0 -0 -0 -0 -0 -0 -0 -0 -0
-42 -14 -4 -8 -19 -0 -73 -41 -46 -45 -31 -21 -49 -102 -148 -133 -0 -0 -0 -0 -0 -0 -0 -0 -0 -0 -0 -0 -0 -0 -0 -0 -0 -0 -0 -0 -0 -0 -0 -0 -0 -0 -0
-60 -33 -8 -1 -99 -105 -70 -4 -24 -30 -32 -14 -30 -82 -2 -0 -0 -0 -0 -0 -0 -0 -0 -0 -0 -0 -0 -0 -0 -0 -0 -0 -0 -0 -0 -0 -0 -0 -0 -0 -0 -0 -0
-73 -29 -6 -7 -64 -37 -4 -19 -27 -17 -39 -26 -33 -90 -0 -24 -13 -30 -19 -11 -3 -1 -0 -1 -0 -0 -0 -0 -0 -0 -0 -0 -0 -0 -0 -0 -0 -0 -0 -0 -0 -0 -0
-20 -45 -15 -18 -24 -3 -82 -82 -25 -6 -9 -31 -34 -22 -1 -0 -7 -1 -2 -1 -2 -0 -0 -0 -0 -0 -0 -0 -0 -0 -0 -0 -0 -0 -0 -0 -0 -0 -0 -0 -0 -0 -0
-20 -89 -48 -26 -24 -15 -11 -6 -16 -18 -8 -4 -0 -0 -0 -2 -2 -0 -11 -1 -0 -0 -0 -0 -0 -0 -0 -0 -0 -0 -0 -0 -0 -0 -0 -0 -0 -0 -0 -0 -0 -0 -0
-155 -84 -41 -11 -34 -11 -9 -7 -10 -7 -9 -1 -3 -5 -17 -0 -0 -0 -0 -0 -0 -0 -0 -0 -0 -0 -0 -0 -0 -0 -0 -0 -0 -0 -0 -0 -0 -0 -0 -0 -0 -0 -0
-86 -58 -84 -87 -38 -19 -20 -9 -11 -6 -5 -2 -0 -0 -0 -0 -0 -0 -0 -0 -0 -0 -0 -0 -0 -0 -0 -0 -0 -0 -0 -0 -0 -0 -0 -0 -0 -0 -0 -0 -0 -0 -0
-17 -0 -0 -33 -21 -0 -0 -0 -0 -0 -0 -0 -0 -0 -0 -0 -0 -0 -0 -1 -0 -0 -0 -0 -0 -0 -0 -0 -0 -0 -0 -0 -0 -0 -0 -0 -0 -0 -0 -0 -0 -0 -0
-0 -0 -0 -0 -0 -0 -0 -0 -0 -0 -0 -0 -0 -0 -0 -0 -0 -2 -1 -1 -0 -0 -0 -0 -0 -0 -0 -0 -0 -0 -0 -0 -0 -0 -0 -0 -0 -0 -0 -0 -0 -0 -0
-0 -0 -0 -0 -0 -0 -0 -0 -0 -0 -0 -0 -0 -1 -1 -0 -0 -0 -0 -0 -0 -0 -0 -0 -0 -0 -0 -0 -0 -0 -0 -0 -0 -0 -0 -0 -0 -0 -3 -0 -0 -0 -0
-0 -0 -0 -0 -0 -0 -0 -0 -0 -0 -0 -0 -0 -0 -0 -0 -0 -0 -0 -0 -0 -0 -0 -0 -0 -0 -0 -0 -0 -0 -0 -0 -0 -0 -0 -0 -0 -0 -0 -20 -0 -0 -0
Wind_Speed
24 25 36 39 40 40 43 45 36 27 22 20 17 12 8 8 9 10 11 12 13 15 14 15 14 16 16 14 11 9 8 6 4 6 12 15 15 20 22 23 21 18 28
29 27 33 40 48 49 47 37 28 22 19 17 13 8 9 11 12 14 15 16 18 nan nan nan nan nan nan nan 17 14 11 7 6 3 6 10 13 17 21 23 22 17 21
30 29 33 41 44 45 41 34 25 22 20 16 12 12 13 14 16 17 nan nan nan nan nan nan nan nan nan nan nan nan nan 13 10 8 8 13 13 15 20 23 21 17 15
32 35 36 38 40 40 35 29 24 22 19 15 14 15 16 18 20 nan nan nan nan nan nan nan nan nan nan nan nan nan nan nan nan 16 16 16 13 11 14 17 14 13 12
37 36 35 35 35 33 27 24 20 18 17 14 16 18 20 23 nan nan nan nan nan nan nan nan nan nan nan nan nan nan nan nan nan nan 20 19 19 13 8 12 11 12 13
38 35 32 30 28 25 21 16 13 14 13 15 17 21 24 26 nan nan nan nan nan nan nan nan nan nan nan nan nan nan nan nan nan nan 23 24 23 16 13 8 5 8 15
35 29 25 22 20 17 15 12 12 14 15 18 20 23 26 27 nan nan nan nan nan nan nan nan nan nan nan nan nan nan nan nan nan nan nan 26 nan 22 17 13 11 9 14
30 24 18 17 13 11 11 10 13 16 19 20 22 24 26 27 28 nan nan nan nan nan nan nan nan nan nan nan nan nan nan nan nan nan nan 26 24 24 23 19 14 12 12
21 16 13 8 8 10 12 13 17 20 21 22 24 26 25 25 28 nan nan nan nan nan nan nan 27 26 nan nan nan nan nan nan nan nan nan nan 22 24 24 24 22 21 21
15 10 7 8 9 11 13 17 21 22 25 27 27 27 27 31 nan nan nan nan 27 26 26 27 30 29 29 nan nan nan nan nan nan nan nan nan 22 20 22 22 24 24 23
5 2 3 6 11 nan nan 18 23 26 25 24 24 28 nan nan nan nan nan nan 30 30 30 29 nan nan nan nan nan nan nan nan nan nan nan nan nan 21 21 22 22 22 23
nan nan nan nan nan nan nan nan nan nan 23 22 23 25 nan 28 nan nan nan nan nan nan nan nan nan nan nan nan nan nan nan nan nan nan nan nan nan nan nan nan 21 22 22
nan nan nan nan nan nan nan nan nan nan 25 24 22 25 29 30 30 35 nan nan nan nan nan nan nan nan nan nan nan nan nan nan nan nan nan nan nan nan nan nan nan 18 nan
nan nan nan nan nan nan nan nan nan 22 24 25 21 27 29 nan nan nan nan nan nan nan nan nan nan nan nan nan nan nan nan nan nan nan nan nan nan nan nan nan nan nan nan
nan nan nan nan nan nan nan nan nan 22 22 22 25 33 nan nan nan nan nan nan nan nan nan nan nan nan nan nan nan nan nan nan nan nan nan nan nan nan nan nan nan nan nan
nan 18 21 22 nan nan nan nan nan 19 15 18 28 nan nan nan nan nan nan nan nan nan nan nan nan nan nan nan nan nan nan nan nan nan nan nan nan nan nan nan nan nan nan
18 24 26 29 nan nan nan nan 31 23 15 31 35 nan nan nan nan nan nan nan nan nan nan nan nan nan nan nan nan nan nan nan nan nan nan nan nan nan nan nan nan nan nan
23 29 32 27 nan nan nan nan 20 25 34 39 43 nan nan nan nan nan nan nan nan nan nan nan nan nan nan nan nan nan nan nan nan nan nan nan nan nan nan nan nan nan nan
26 31 31 24 nan nan nan nan nan nan nan nan nan nan nan nan nan nan nan nan nan nan nan nan nan nan nan nan nan nan nan nan nan nan nan nan nan nan nan nan nan nan nan
28 33 25 22 nan nan nan nan nan nan nan nan nan nan nan nan nan nan nan nan nan nan nan nan nan nan nan nan nan nan nan nan nan nan nan nan nan nan nan nan nan nan nan
29 30 22 31 nan nan nan nan nan nan nan nan nan nan nan nan nan nan nan nan nan nan nan nan nan nan nan nan nan nan nan nan nan nan nan nan nan nan nan nan nan nan nan
25 25 nan nan nan nan nan nan nan nan nan nan nan nan nan nan nan nan nan nan nan nan nan nan nan nan nan nan nan nan nan nan nan nan nan nan nan nan nan nan nan nan nan
nan nan nan nan nan nan nan nan nan nan nan nan nan nan nan nan nan nan nan nan nan nan nan nan nan nan nan nan nan nan nan nan nan nan nan nan nan nan nan nan nan nan nan
nan nan nan nan nan nan nan nan nan nan nan nan nan nan nan nan nan nan nan nan nan nan nan nan nan nan nan nan nan nan nan nan nan nan nan nan nan nan nan nan nan nan nan
nan nan nan nan nan nan nan nan nan nan nan nan nan nan nan nan nan nan nan nan nan nan nan nan nan nan nan nan nan nan nan nan nan nan nan nan nan nan nan nan nan nan nan
nan nan nan nan nan nan nan nan nan nan nan nan nan nan nan nan nan nan nan nan nan nan nan nan nan nan nan nan nan nan nan nan nan nan nan nan nan nan nan nan nan nan nan
Wind_Direction
295 304 307 300 294 300 305 305 299 296 292 293 286 282 283 290 287 289 285 288 283 280 283 278 279 277 277 277 286 295 312 299 299 264 265 276 278 278 282 283 275 270 271
288 295 303 297 301 301 302 297 293 287 294 286 276 276 285 283 289 288 285 283 287 nan nan nan nan nan nan nan 270 271 268 287 308 331 287 295 295 287 279 285 280 276 268
286 293 301 301 299 301 298 296 290 295 290 277 271 278 280 288 286 286 nan nan nan nan nan nan nan nan nan nan nan nan nan 263 268 282 298 323 331 322 288 278 273 277 266
285 290 300 302 302 299 299 294 293 288 285 271 269 273 279 279 277 nan nan nan nan nan nan nan nan nan nan nan nan nan nan nan nan 273 298 300 314 307 298 283 280 292 297
294 298 305 304 296 298 295 292 289 282 273 266 270 276 280 278 nan nan nan nan nan nan nan nan nan nan nan nan nan nan nan nan nan nan 292 293 294 289 292 296 287 281 284
295 298 303 296 293 292 296 290 278 266 265 270 277 280 280 280 nan nan nan nan nan nan nan nan nan nan nan nan nan nan nan nan nan nan 286 288 287 280 276 270 295 287 288
296 294 289 289 291 294 286 286 273 270 268 271 275 279 286 290 nan nan nan nan nan nan nan nan nan nan nan nan nan nan nan nan nan nan nan 279 nan 270 271 266 273 281 276
295 291 286 293 281 278 275 274 273 272 271 279 285 290 293 295 292 nan nan nan nan nan nan nan nan nan nan nan nan nan nan nan nan nan nan 282 267 258 260 267 279 270 271
288 279 282 262 248 266 264 272 273 276 279 284 288 288 290 287 286 nan nan nan nan nan nan nan 285 282 nan nan nan nan nan nan nan nan nan nan 263 258 256 252 250 255 255
273 272 257 227 244 251 262 275 280 288 294 296 297 295 295 290 nan nan nan nan 285 285 286 285 282 281 278 nan nan nan nan nan nan nan nan nan 258 255 253 247 244 245 249
234 216 215 249 254 nan nan 283 291 292 295 296 299 300 nan nan nan nan nan nan 292 287 285 280 nan nan nan nan nan nan nan nan nan nan nan nan nan 253 253 252 249 241 237
nan nan nan nan nan nan nan nan nan nan 297 298 302 303 nan 301 nan nan nan nan nan nan nan nan nan nan nan nan nan nan nan nan nan nan nan nan nan nan nan nan 252 253 246
nan nan nan nan nan nan nan nan nan nan 289 289 296 300 306 307 305 304 nan nan nan nan nan nan nan nan nan nan nan nan nan nan nan nan nan nan nan nan nan nan nan 250 nan
nan nan nan nan nan nan nan nan nan 285 294 282 287 318 309 nan nan nan nan nan nan nan nan nan nan nan nan nan nan nan nan nan nan nan nan nan nan nan nan nan nan nan nan
nan nan nan nan nan nan nan nan nan 286 302 284 299 307 nan nan nan nan nan nan nan nan nan nan nan nan nan nan nan nan nan nan nan nan nan nan nan nan nan nan nan nan nan
nan 296 288 277 nan nan nan nan nan 288 285 272 295 nan nan nan nan nan nan nan nan nan nan nan nan nan nan nan nan nan nan nan nan nan nan nan nan nan nan nan nan nan nan
286 282 278 279 nan nan nan nan 251 271 291 305 302 nan nan nan nan nan nan nan nan nan nan nan nan nan nan nan nan nan nan nan nan nan nan nan nan nan nan nan nan nan nan
269 272 274 274 nan nan nan nan 256 313 313 305 306 nan nan nan nan nan nan nan nan nan nan nan nan nan nan nan nan nan nan nan nan nan nan nan nan nan nan nan nan nan nan
278 282 279 271 nan nan nan nan nan nan nan nan nan nan nan nan nan nan nan nan nan nan nan nan nan nan nan nan nan nan nan nan nan nan nan nan nan nan nan nan nan nan nan
288 291 286 273 nan nan nan nan nan nan nan nan nan nan nan nan nan nan nan nan nan nan nan nan nan nan nan nan nan nan nan nan nan nan nan nan nan nan nan nan nan nan nan
287 285 272 271 nan nan nan nan nan nan nan nan nan nan nan nan nan nan nan nan nan nan nan nan nan nan nan nan nan nan nan nan nan nan nan nan nan nan nan nan nan nan nan
292 291 nan nan nan nan nan nan nan nan nan nan nan nan nan nan nan nan nan nan nan nan nan nan nan nan nan nan nan nan nan nan nan nan nan nan nan nan nan nan nan nan nan
nan nan nan nan nan nan nan nan nan nan nan nan nan nan nan nan nan nan nan nan nan nan nan nan nan nan nan nan nan nan nan nan nan nan nan nan nan nan nan nan nan nan nan
nan nan nan nan nan nan nan nan nan nan nan nan nan nan nan nan nan nan nan nan nan nan nan nan nan nan nan nan nan nan nan nan nan nan nan nan nan nan nan nan nan nan nan
nan nan nan nan nan nan nan nan nan nan nan nan nan nan nan nan nan nan nan nan nan nan nan nan nan nan nan nan nan nan nan nan nan nan nan nan nan nan nan nan nan nan nan
nan nan nan nan nan nan nan nan nan nan nan nan nan nan nan nan nan nan nan nan nan nan nan nan nan nan nan nan nan nan nan nan nan nan nan nan nan nan nan nan nan nan nan